Regional Weather Roundup
Issued by NWS

Home | Current Version | Previous Version | Graphics & Text | Print | Product List | Glossary On
Versions: 1 2 3 4 5 6 7 8 9 10 11 12 13 14 15 16 17 18 19 20 21 22 23 24 25 26 27 28 29 30 31 32 33 34 35 36 37 38 39 40 41 42 43 44 45 46 47 48 49 50
000
ASUS43 KIND 192009
RWRIN

WEATHER ROUNDUP FOR INDIANA
NATIONAL WEATHER SERVICE INDIANAPOLIS IN
400 PM EDT SUN APR 19 2015

NOTE: "FAIR" INDICATES FEW OR NO CLOUDS BELOW 12,000 FEET WITH NO
SIGNIFICANT WEATHER AND/OR OBSTRUCTIONS TO VISIBILITY.

* - STATION DOES NOT REPORT WEATHER SUCH AS PRECIPITATION OR FOG.

+ - STATION NOT QUALITY CONTROLLED BY THE NATIONAL WEATHER SERVICE.
    USE DATA WITH CAUTION...ESPECIALLY DEWPOINT AND RELATIVE
    HUMIDITY OBSERVATIONS.

INZ001>003-010>013-019-020-192100-
NORTHWEST INDIANA

CITY           SKY/WX    TMP DP  RH WIND       PRES   REMARKS
GARY /AIRPORT/ LGT RAIN  66  39  37 SE8       29.60F
KNOX *+        CLOUDY    55  45  67 E9        29.60F
LA PORTE +     LGT RAIN  59  52  77 E10       29.62F
MICHIGAN CITY+ LGT RAIN  59  45  58 E7        29.62F
MONTICELLO +   RAIN      54  54  99 E7        29.57F
RENSSELAER +   LGT RAIN  54  54 100 E16       29.58F
VALPARAISO     LGT RAIN  57  52  83 E10       29.60F

$$

LMZ046-743>745-192100-
SOUTHERN LAKE MICHIGAN

STATION/POSITION TIME  TEMP WIND        PRES
                       AIR  DIR/SP/G
                 (UTC) (F)  (DEG/KT/KT) (MB)
BURNS HARBOR     2000   63  110/ 15/ 19 1003.0F
MICHIGAN CITY    2000   63   90/ 11/ 14   N/A
4NW MICH CITY    2000   55  130/ 10/ 12   N/A

$$

INZ004-005-014>016-021>024-192100-
NORTH CENTRAL INDIANA

CITY           SKY/WX    TMP DP  RH WIND       PRES   REMARKS
ELKHART        CLOUDY    59  45  58 E12       29.65
GOSHEN         LGT RAIN  58  50  75 E13       29.64F
LOGANSPORT +   LGT RAIN  54  54 100 E12       29.59F
PERU/GRISSOM   LGT RAIN  56  54  93 E15       29.57F
ROCHESTER +    LGT RAIN  55  55 100 E14       29.61F
SOUTH BEND     LGT RAIN  60  49  66 E14       29.64F
WARSAW +       HVY RAIN  55  52  88 E9        29.64F

$$

INZ006>009-017-018-025>027-192100-
NORTHEAST INDIANA

CITY           SKY/WX    TMP DP  RH WIND       PRES   REMARKS
ANGOLA *+      CLOUDY    55  45  67 E12       29.69F
AUBURN +       RAIN      54  45  71 E13       29.69F
FORT WAYNE     RAIN      55  50  83 E21G26    29.64F
HUNTINGTON +   RAIN      53  50  87 E13G20    29.61F

$$

INZ028-029-035-036-043>045-051>053-192100-
WEST CENTRAL INDIANA

CITY           SKY/WX    TMP DP  RH WIND       PRES   REMARKS
CRAWFORDSVL +  LGT RAIN  56  54  91 E12       29.52F
GREENCASTLE +  RAIN      57  54  88 E9        29.52F
LAFAYETTE      RAIN      55  54  96 E15       29.54F FOG
TERRE HAUTE    LGT RAIN  61  59  93 E13       29.50F

$$

INZ030>032-037>040-046>048-054>057-064-065-192100-
CENTRAL INDIANA

CITY           SKY/WX    TMP DP  RH WIND       PRES   REMARKS
CP ATTERBURY + RAIN      61  59  94 E8        29.50F
FISHERS *+     CLOUDY    59  59 100 E9        29.52F
FRANKFORT +    LGT RAIN  57  57 100 NE13      29.57F
GREENWOOD *+   CLOUDY    61  59  94 E10       29.51F
INDIANAPOLIS   RAIN      61  58  90 E12       29.50F FOG
-EAGLE CREEK   LGT RAIN  60  59  96 E6        29.52F FOG
KOKOMO *+      CLOUDY    57  52  82 E15       29.58F
MARION +       HVY RAIN  58  57  97 E10       29.58F
MT COMFORT *+  CLOUDY    61 N/A N/A E13       29.53F
SHELBYVILLE    RAIN      63  60  90 E12       29.50F FOG
ZIONSVILLE +   LGT RAIN  60  57  89 E8        29.54F

$$

INZ033-034-041-042-049-050-058-059-192100-
EAST CENTRAL INDIANA

CITY           SKY/WX    TMP DP  RH WIND       PRES   REMARKS
MUNCIE         RAIN      61  60  97 E8        29.56F FOG

$$

INZ060-061-067>069-081>083-085>088-192100-
SOUTHWEST INDIANA

CITY           SKY/WX    TMP DP  RH WIND       PRES   REMARKS
EVANSVILLE     LGT RAIN  68  65  90 SE5       29.49F FOG
HUNTINGBURG *+ CLOUDY    68  63  83 S7        29.50F
WASHINGTON +   LGT RAIN  65  61  87 S6        29.49F

$$

INZ062-063-066-070>080-084-089>092-192100-
SOUTH CENTRAL AND SOUTHEAST INDIANA

CITY           SKY/WX    TMP DP  RH WIND       PRES   REMARKS
BEDFORD +      DRIZZLE   63  59  88 CALM      29.50F
BLOOMINGTON    LGT RAIN  62  60  93 E5        29.50F
MADISON *+     CLOUDY    63  61  94 SE7       29.53F
NORTH VERNON + RAIN      64  64 100 SE9       29.51F

$$




USA.gov is the U.S. government's official web portal to all federal, state and local government web resources and services.